Home   Weather   Westerstede   Past weeks

Flag for Germany Past Weather in Westerstede, Lower Saxony, Germany — Yesterday and Last 2 Weeks

Now
45 °F

Passing clouds.


Feels Like: 38 °F
Forecast: 42 / 50 °F
Wind: 15 mph from Southwest

Location: Wittmundhaven

Current Time: Dec 8, 2016 at 9:26:23 pm

Latest Report: Dec 8, 2016 at 8:20 pm


Visibility: N/A

Pressure: 30.18 "Hg

Humidity: 81%

Dew Point: 39 °F

Location of WesterstedeLocation

Past Weather in Westerstede — Graph

°F

Westerstede Temperature Yesterday

Maximum temperature yesterday: 45 °F (at 11:20 pm)
Minimum temperature yesterday: 30 °F (at 12:20 am)
Average temperature yesterday: 39 °F

High & Low Weather Summary for the Past Weeks

 TemperatureHumidityPressure
High48 °F (Nov 23, 10:20 pm)100% (Nov 23, 8:20 pm)30.57 "Hg (Nov 23, 8:20 pm)
Low21 °F (Dec 5, 8:20 am)61% (Nov 28, 12:20 pm)30.01 "Hg (Nov 26, 7:20 pm)
Average37 °F88%30.29 "Hg
* Reported Nov 23 7:20 pm — Dec 8 7:20 pm, Westerstede, Weather by CustomWeather, © 2016

Note: Actual official high and low records may vary slightly from our data, if they occured in-between our weather recording intervals... More about our weather records

Advertising

Westerstede Weather History for the Previous 24 Hours

Scroll right to see more
 ConditionsComfort  
Time TempWeatherWind HumidityBarometerVisibility
7:20 pm
Thu, Dec 8
46 °FPassing clouds.15 mph71%30.21 "HgN/A
6:20 pm46 °FPassing clouds.14 mph71%30.18 "HgN/A
4:20 pm46 °FLight rain. Partly cloudy.12 mph76%30.18 "HgN/A
3:20 pm48 °FBroken clouds.14 mph71%30.18 "HgN/A
2:20 pm48 °FPartly sunny.14 mph71%30.21 "HgN/A
1:20 pm48 °FPartly sunny.12 mph71%30.21 "HgN/A
12:20 pm46 °FPartly sunny.13 mph76%30.24 "HgN/A
11:20 am46 °FPartly sunny.14 mph76%30.24 "HgN/A
10:20 am45 °FPartly sunny.14 mph81%30.24 "HgN/A
9:20 am45 °FBroken clouds.13 mph81%30.24 "HgN/A
8:20 am45 °FPartly cloudy.12 mph81%30.24 "HgN/A
7:20 am45 °FPassing clouds.10 mph81%30.24 "HgN/A
6:20 am45 °FPassing clouds.16 mph81%30.21 "HgN/A
5:20 am43 °FPassing clouds.13 mph81%30.24 "HgN/A
4:20 am45 °FPassing clouds.13 mph81%30.24 "HgN/A
3:20 am45 °FPassing clouds.13 mph81%30.24 "HgN/A
2:20 am43 °FPassing clouds.13 mph87%30.24 "HgN/A
1:20 am43 °FPassing clouds.12 mph87%30.27 "HgN/A
12:20 am43 °FPassing clouds.12 mph87%30.24 "HgN/A
11:20 pm
Wed, Dec 7
45 °FPassing clouds.13 mph81%30.27 "HgN/A
10:20 pm43 °FPassing clouds.13 mph87%30.24 "HgN/A
10:02 pm43 °FPassing clouds.15 mph87%30.24 "HgN/A
9:20 pm43 °FPassing clouds.15 mph87%30.24 "HgN/A
Weather by CustomWeather, © 2016

See weather overviewHow to use our weather pages